Flag for Thailand Weather past 2 weeks in Khon Kaen, Thailand

Now
86 °F

Scattered clouds.


Feels Like: 95 °F
Forecast: 85 / 103 °F
Wind: 6 mph from Southwest

Location: Khon Kaen Airport


UV Index: 10 (Very high)

Visibility: N/A


Pressure: 29.80 "Hg

Humidity: 70%

Dew point: 75 °F

Location of Khon KaenLocation

Historic Weather in Khon Kaen

°F

Khon Kaen temperature yesterday

Maximum temperature yesterday: 99 °F (at 1:00 PM)
Minimum temperature yesterday: 81 °F (at 6:00 AM)
Average temperature yesterday: 90 °F

Past Weeks' High & Low Weather Summary

 TemperatureHumidityPressure
High100 °F (Apr 9, 11:00 PM)100% (Apr 12, 3:00 AM)29.92 "Hg (Apr 12, 3:00 AM)
Low73 °F (Apr 15, 5:00 PM)39% (Apr 9, 4:00 PM)29.65 "Hg (Apr 20, 4:00 PM)
Average86 °F73%29.79 "Hg
* Reported Apr 9 8:00 AM — Apr 24 8:00 AM, Khon Kaen, Weather by CustomWeather, © 2014

Note: Actual official high and low records may vary slightly from our data, if they occured in-between our weather recording intervals... More about our weather records

Advertising

Historic Weather Conditions — Data for Previous 24 hours

 ConditionsComfort  
Time TempWeatherWind HumidityBarometerVisibility
8:00 AM
Apr 24
82 °FScattered clouds.5 mph79%29.80 "HgN/A
7:00 AM81 °FScattered clouds.3 mph84%29.74 "HgN/A
6:00 AM79 °FPartly sunny.5 mph89%29.74 "Hg6 mi
4:00 AM79 °FClear.5 mph89%29.71 "Hg10 mi
3:00 AM81 °FPassing clouds.3 mph79%29.71 "HgN/A
2:00 AM81 °FPassing clouds.5 mph79%29.71 "HgN/A
1:00 AM82 °FPassing clouds.3 mph74%29.71 "HgN/A
10:00 PM
Apr 23
84 °FPassing clouds.6 mph70%29.77 "HgN/A
9:00 PM88 °FPartly cloudy.7 mph66%29.74 "HgN/A
8:00 PM91 °FPassing clouds.3 mph63%29.74 "HgN/A
7:00 PM91 °FPartly cloudy.5 mph59%29.71 "HgN/A
6:00 PM95 °FScattered clouds.6 mph53%29.68 "HgN/A
5:00 PM97 °FPassing clouds.6 mph50%29.65 "HgN/A
4:00 PM97 °FPassing clouds.6 mph53%29.65 "HgN/A
3:00 PM99 °FScattered clouds.6 mph50%29.68 "HgN/A
2:00 PM99 °FScattered clouds.6 mph50%29.74 "HgN/A
1:00 PM99 °FPassing clouds.5 mph50%29.77 "HgN/A
12:00 PM93 °FPassing clouds.7 mph63%29.80 "HgN/A
11:00 AM93 °FSunny.3 mph63%29.83 "Hg10 mi
10:00 AM91 °FClear.3 mph67%29.83 "Hg6 mi
9:00 AM88 °FClear.3 mph75%29.83 "Hg4 mi
Weather by CustomWeather, © 2014

See weather overview